| time (UTC) | temp F | wind direction | speed MPH | gust MPH | rain 1hr in | rain 24hr in | rain mn in | humidity % | barometer mb |
| 20260505080021 | 63 | 182 | 4.0 | 10.0 | 0.00 | 0.01 | 0.01 | 63 | 1017.7 |
| 20260505074522 | 64 | 177 | 3.0 | 8.0 | 0.00 | 0.01 | 0.01 | 63 | 1017.4 |
| 20260505073023 | 65 | 188 | 2.0 | 4.0 | 0.00 | 0.01 | 0.01 | 63 | 1017.0 |
| 20260505071539 | 66 | 195 | 2.0 | 6.0 | 0.00 | 0.01 | 0.01 | 63 | 1016.7 |
| 20260505070019 | 68 | 187 | 3.0 | 7.0 | 0.00 | 0.01 | 0.01 | 58 | 1016.7 |
| 20260505064523 | 69 | 196 | 3.0 | 9.0 | 0.00 | 0.01 | 0.01 | 58 | 1016.4 |
| 20260505063017 | 72 | 147 | 3.0 | 7.0 | 0.00 | 0.01 | 0.01 | 55 | 1016.2 |
| 20260505061517 | 79 | 244 | 0.0 | 6.0 | 0.00 | 0.01 | 0.01 | 35 | 1016.3 |
| 20260505060016 | 80 | 291 | 2.0 | 7.0 | 0.00 | 0.01 | 0.01 | 33 | 1016.1 |
| 20260505054516 | 80 | 297 | 3.0 | 8.0 | 0.00 | 0.01 | 0.01 | 35 | 1016.0 |
| 20260505053023 | 79 | 299 | 2.0 | 8.0 | 0.00 | 0.01 | 0.01 | 35 | 1016.0 |
| 20260505051520 | 79 | 289 | 2.0 | 10.0 | 0.00 | 0.01 | 0.01 | 35 | 1016.1 |
| 20260505041511 | 79 | 191 | 1.0 | 10.0 | 0.00 | 0.01 | 0.01 | 36 | 1015.5 |
| 20260505040006 | 79 | 242 | 2.0 | 10.0 | 0.00 | 0.01 | 0.01 | 37 | 1015.1 |
| 20260505034503 | 79 | 291 | 4.0 | 11.0 | 0.00 | 0.01 | 0.01 | 37 | 1015.2 |
| 20260505033004 | 78 | 317 | 4.0 | 11.0 | 0.00 | 0.01 | 0.01 | 37 | 1015.5 |
| 20260505031500 | 78 | 320 | 4.0 | 9.0 | 0.00 | 0.01 | 0.01 | 39 | 1015.6 |
| 20260505030104 | 77 | 287 | 5.0 | 12.0 | 0.00 | 0.01 | 0.01 | 39 | 1015.7 |
| 20260505024557 | 76 | 275 | 7.0 | 16.0 | 0.00 | 0.02 | 0.01 | 40 | 1015.7 |
| 20260505023058 | 76 | 290 | 7.0 | 16.0 | 0.00 | 0.02 | 0.01 | 40 | 1016.0 |
| 20260505021554 | 75 | 303 | 5.0 | 12.0 | 0.00 | 0.02 | 0.01 | 43 | 1016.0 |
| 20260505020055 | 75 | 309 | 7.0 | 15.0 | 0.00 | 0.02 | 0.01 | 43 | 1016.0 |
| 20260505014549 | 74 | 317 | 4.0 | 16.0 | 0.00 | 0.03 | 0.01 | 45 | 1016.1 |
| 20260505013047 | 73 | 311 | 9.0 | 17.0 | 0.00 | 0.03 | 0.01 | 46 | 1016.5 |
| 20260505011552 | 73 | 276 | 9.0 | 18.0 | 0.00 | 0.03 | 0.01 | 45 | 1016.5 |
| 20260505010048 | 73 | 283 | 7.0 | 16.0 | 0.00 | 0.03 | 0.01 | 46 | 1016.8 |
| 20260505004543 | 73 | 349 | 8.0 | 14.0 | 0.00 | 0.03 | 0.01 | 46 | 1017.0 |
| 20260505003041 | 72 | 269 | 5.0 | 15.0 | 0.00 | 0.03 | 0.01 | 47 | 1017.5 |
| 20260505001540 | 72 | 293 | 6.0 | 13.0 | 0.00 | 0.03 | 0.01 | 45 | 1017.4 |
| 20260505000038 | 71 | 315 | 3.0 | 12.0 | 0.00 | 0.03 | 0.01 | 48 | 1017.3 |
| 20260504234537 | 71 | 360 | 5.0 | 15.0 | 0.00 | 0.03 | 0.01 | 48 | 1017.5 |
| 20260504233041 | 71 | 305 | 3.0 | 13.0 | 0.00 | 0.03 | 0.01 | 49 | 1017.5 |
| 20260504231534 | 70 | 326 | 5.0 | 11.0 | 0.00 | 0.03 | 0.01 | 48 | 1017.6 |
| 20260504230031 | 69 | 322 | 3.0 | 11.0 | 0.00 | 0.03 | 0.01 | 50 | 1017.7 |
| 20260504224527 | 68 | 335 | 2.0 | 10.0 | 0.00 | 0.03 | 0.01 | 51 | 1017.4 |
| 20260504223022 | 66 | 299 | 3.0 | 11.0 | 0.00 | 0.03 | 0.01 | 56 | 1017.3 |
| 20260504221523 | 63 | 296 | 2.0 | 12.0 | 0.00 | 0.03 | 0.01 | 62 | 1017.2 |
| 20260504220022 | 61 | 307 | 4.0 | 13.0 | 0.00 | 0.03 | 0.01 | 63 | 1017.2 |
| 20260504214514 | 60 | 288 | 4.0 | 10.0 | 0.00 | 0.03 | 0.01 | 66 | 1016.8 |
| 20260504213009 | 59 | 302 | 7.0 | 13.0 | 0.00 | 0.03 | 0.01 | 72 | 1016.6 |
| 20260504211507 | 57 | 301 | 6.0 | 10.0 | 0.00 | 0.03 | 0.01 | 78 | 1016.5 |
| 20260504210005 | 57 | 299 | 2.0 | 5.0 | 0.00 | 0.03 | 0.01 | 84 | 1016.5 |
| 20260504204502 | 57 | 303 | 2.0 | 8.0 | 0.00 | 0.03 | 0.01 | 85 | 1016.3 |
| 20260504203059 | 57 | 300 | 4.0 | 10.0 | 0.00 | 0.03 | 0.01 | 86 | 1016.0 |
| 20260504201557 | 58 | 289 | 5.0 | 9.0 | 0.00 | 0.03 | 0.01 | 86 | 1015.9 |
| 20260504200058 | 57 | 335 | 4.0 | 11.0 | 0.00 | 0.03 | 0.01 | 85 | 1015.5 |
| 20260504194552 | 57 | 300 | 2.0 | 6.0 | 0.00 | 0.03 | 0.01 | 83 | 1015.3 |
| 20260504193048 | 58 | 285 | 3.0 | 7.0 | 0.00 | 0.03 | 0.01 | 82 | 1015.1 |
| 20260504191554 | 58 | 289 | 4.0 | 10.0 | 0.00 | 0.03 | 0.01 | 81 | 1015.2 |
| 20260504190050 | 59 | 287 | 4.0 | 8.0 | 0.00 | 0.03 | 0.01 | 81 | 1015.1 |
| 20260504184553 | 59 | 322 | 6.0 | 11.0 | 0.00 | 0.03 | 0.01 | 81 | 1014.9 |
| 20260504183048 | 59 | 300 | 4.0 | 9.0 | 0.00 | 0.03 | 0.01 | 81 | 1014.7 |
| 20260504181546 | 59 | 290 | 3.0 | 8.0 | 0.00 | 0.03 | 0.01 | 81 | 1014.6 |
| 20260504180036 | 59 | 291 | 2.0 | 8.0 | 0.00 | 0.03 | 0.01 | 82 | 1014.5 |
| 20260504174534 | 60 | 270 | 3.0 | 8.0 | 0.00 | 0.03 | 0.01 | 82 | 1014.4 |
| 20260504173031 | 60 | 284 | 1.0 | 9.0 | 0.00 | 0.03 | 0.01 | 82 | 1014.6 |
| 20260504171528 | 61 | 293 | 2.0 | 5.0 | 0.00 | 0.03 | 0.01 | 82 | 1014.7 |
| 20260504081546 | 67 | 44 | 2.0 | 5.0 | 0.00 | 0.02 | 0.02 | 84 | 1013.9 |